Regional Weather Roundup
Issued by NWS

Home | Current Version | Previous Version | Text Only | Print | Product List | Glossary Off
Versions: 1 2 3 4 5 6 7 8 9 10 11 12 13 14 15 16 17 18 19 20 21 22 23 24 25 26 27 28 29 30 31 32 33 34 35 36 37 38 39 40 41 42 43 44 45 46 47 48 49 50

000
ASUS43 KLSX 262207
RWRMO

WEATHER SUMMARY FOR MISSOURI
NATIONAL WEATHER SERVICE SPRINGFIELD MO
500 PM CDT FRI AUG 26 2016

NOTE: "FAIR" INDICATES FEW OR NO CLOUDS BELOW 12,000 FEET WITH NO
       SIGNIFICANT WEATHER AND/OR OBSTRUCTIONS TO VISIBILITY.
       CURRENT SKY AND/OR WEATHER CONDITIONS ARE NOT AVAILABLE FOR
       CHILLICOTHE AND FARMINGTON.

MOZ001>031-035>038-043-044-053-054-262300-
...NORTHERN AND WESTERN MISSOURI...

CITY           SKY/WX    TMP DP  RH WIND       PRES   REMARKS
KANSAS CTY INT CLOUDY    82  67  60 SE10      29.99F
KANSAS C DTWN  LGT RAIN  83  69  62 SE13G21   29.98F
LEE`S SUMMIT   RAIN      77  72  84 E6        30.00F
ST JOSEPH      CLOUDY    79  69  71 NE8       29.98F
CHILLICOTHE      N/A     80  71  74 VRB3      30.04
KIRKSVILLE     CLOUDY    77  71  82 CALM      30.06S

$$
MOZ066>068-077>081-088>096-101>105-262300-
...SOUTHWEST MISSOURI...

CITY           SKY/WX    TMP DP  RH WIND       PRES   REMARKS
SPRINGFIELD    CLOUDY    81  71  71 S7        30.03F
JOPLIN         CLOUDY    80  72  76 S9        30.03F
BRANSON        PTSUNNY   79  72  78 S9        30.06F

$$
MOZ032>034-039>042-045>050-055>058-069>072-262300-
...CENTRAL MISSOURI...

CITY           SKY/WX    TMP DP  RH WIND       PRES   REMARKS
COLUMBIA       PTSUNNY   79  73  82 SE7       30.03F
JEFFERSON CITY CLOUDY    81  74  79 SE6       30.01F
ROLLA          MOSUNNY   82  73  74 CALM      30.04F
SEDALIA        CLOUDY    82  73  74 S3        30.03F
WHITEMAN AFB   PTSUNNY   82  76  83 S5        30.01F
OSAGE BEACH    CLOUDY    80  75  84 SE5       30.04F

$$
MOZ051-052-059>065-262300-
...EAST CENTRAL MISSOURI...

CITY           SKY/WX    TMP DP  RH WIND       PRES   REMARKS
ST LOUIS INTL  PTSUNNY   87  74  64 N5        30.03F HX  95
SPIRIT OF STL  CLOUDY    86  75  69 NE5       30.00F HX  95
ST CHARLES     CLOUDY    84  77  79 NE5       30.02F HX  94

$$
MOZ072>076-082>087-097>100-106>115-262300-
...SOUTH CENTRAL AND SOUTHEAST MISSOURI...

CITY           SKY/WX    TMP DP  RH WIND       PRES   REMARKS
CAPE GIRARDEAU CLOUDY    84  71  65 CALM      30.02S
FARMINGTON     SUNNY     88  72  58 S8        30.04F HX  94
POPLAR BLUFF   CLOUDY    87  75  67 NE3       30.03R HX  96
WEST PLAINS    SUNNY     86  68  54 SE5       30.07F

$$



USA.gov is the U.S. government's official web portal to all federal, state and local government web resources and services.